sat.trackr.live / text

‹ back to catalog

INSAT-3DR

NORAD 41752 · 2016-054A

PAYLOAD ACTIVE UNKNOWN

§ Identity

Operator
Country
IND
Launch date
2016-09-08
Launch site
SRILR
Launch vehicle
Mass (kg)
RCS (m²)
8.29

Purposes: comms, earth_obs

External: N2YO · Heavens-Above · Gunter

§ Orbital elements

Epoch: 2026-05-25T02:23:08.127168Z

Period
1,436.09 min
Inclination
0.1161°
Eccentricity
0.0010751
Mean motion
1.00272375 rev/d
Perigee alt
35,741.1 km
Apogee alt
35,831.8 km
Semi-major
42,164.6 km
B*
0.0000e+0
RAAN
87.2584°
Arg perigee
190.7342°
Mean anomaly
74.4899°
Rev number
3,558

§ Raw data

INSAT-3DR1 41752U 16054A   26145.09939962 -.00000080  00000+0  00000+0 0  99972 41752   0.1161  87.2584 0010751 190.7342  74.4899  1.00272375 35583

JSON: /api/v1/satellites/41752 · /tle

For live sub-satellite position, see the globe view (requires WebGL).

§ Visibility from observer

Set your observer location to see the next 7 days of passes ≥ 10°. The values pass through the URL so the page stays shareable.

No JS? Fill the form by hand. The geolocation button needs JavaScript.